Spencer, IA

6:43 PM CST on February 23, 2017 (GMT -0600)
Spencer Municipal

Weather History for KSPW - November, 2012

Change the Weather History Date:

Sunday, November 18, 2012

  Actual Average Record
Temperature  
Mean Temperature 50 °F -  
Max Temperature 60 °F 41 °F 68 °F (1999)
Min Temperature 39 °F 24 °F -1 °F (1986)
Degree Days  
Heating Degree Days 16    
Moisture  
Dew Point 32 °F    
Average Humidity 52    
Maximum Humidity 65    
Minimum Humidity 38    
Precipitation  
Precipitation 0.00 in - - ()
Sea Level Pressure  
Sea Level Pressure 30.10 in    
Wind  
Wind Speed 15 mph (South)    
Max Wind Speed 21 mph    
Max Gust Speed 26 mph    
Visibility 10 miles    
Events      
Averages and records for this station are not official NWS values.
T = Trace of Precipitation, MM = Missing Value Source: NWS Daily Summary

Daily Weather History Graph

Daily Weather History Graph

Search for Another Location

Airport or City:

Trip Planner

Search our weather history database for the weather conditions in past years. The results will help you decide how hot, cold, wet, or windy it might be!

Date:

Astronomy

Nov. 18, 2012 Rise Set
Actual Time 7:18 AM CST 4:53 PM CST
Civil Twilight 6:47 AM CST 5:24 PM CST
Nautical Twilight 6:12 AM CST 5:59 PM CST
Astronomical Twilight 5:38 AM CST 6:33 PM CST
Moon 11:43 AM CST (11/18) 10:16 PM CST (11/18)
Length of Visible Light 10h 37m
Length of Day
9h 35m
Waxing Crescent, 30% of the Moon is Illuminated
Nov 18
Waxing Crescent
Nov 20
First Quarter
Nov 28
Full
Dec 6
Last Quarter
Dec 13
New

Hourly Weather History & Observations

Time (CST) Temp. Windchill Dew Point Humidity Pressure Visibility Wind Dir Wind Speed Gust Speed Precip Events Conditions
12:53 AM 45.0 °F 37.9 °F 32.0 °F 60% 30.15 in 10.0 mi South 16.1 mph - N/A   Clear
1:53 AM 45.0 °F 37.6 °F 30.9 °F 58% 30.14 in 10.0 mi South 17.3 mph - N/A   Clear
2:53 AM 45.0 °F 37.9 °F 30.0 °F 56% 30.14 in 10.0 mi South 16.1 mph - N/A   Clear
3:53 AM 42.1 °F 35.7 °F 28.9 °F 60% 30.14 in 10.0 mi South 11.5 mph - N/A   Clear
4:53 AM 43.0 °F 35.7 °F 28.9 °F 58% 30.12 in 10.0 mi South 15.0 mph - N/A   Clear
5:53 AM 42.1 °F 34.9 °F 28.9 °F 60% 30.12 in 10.0 mi South 13.8 mph - N/A   Clear
6:53 AM 39.9 °F 33.4 °F 28.9 °F 65% 30.12 in 10.0 mi South 10.4 mph - N/A   Clear
7:53 AM 39.9 °F 33.9 °F 28.9 °F 65% 30.12 in 10.0 mi SSE 9.2 mph - N/A   Clear
8:53 AM 45.0 °F 39.3 °F 30.9 °F 58% 30.12 in 10.0 mi South 11.5 mph - N/A   Clear
9:53 AM 50.0 °F - 30.0 °F 46% 30.12 in 10.0 mi South 18.4 mph 25.3 mph N/A   Clear
10:53 AM 53.1 °F - 30.9 °F 43% 30.11 in 10.0 mi South 20.7 mph 26.5 mph N/A   Clear
11:53 AM 54.0 °F - 30.9 °F 41% 30.09 in 10.0 mi South 17.3 mph - N/A   Clear
12:53 PM 57.9 °F - 33.1 °F 39% 30.07 in 10.0 mi South 18.4 mph - N/A   Clear
1:53 PM 59.0 °F - 33.1 °F 38% 30.06 in 10.0 mi South 18.4 mph - N/A   Clear
2:53 PM 60.1 °F - 34.0 °F 38% 30.05 in 10.0 mi South 18.4 mph - N/A   Clear
3:53 PM 59.0 °F - 33.1 °F 38% 30.06 in 10.0 mi South 16.1 mph - N/A   Clear
4:53 PM 55.0 °F - 33.1 °F 43% 30.06 in 10.0 mi SSE 12.7 mph - N/A   Clear
5:53 PM 52.0 °F - 33.1 °F 49% 30.08 in 10.0 mi SSE 11.5 mph - N/A   Clear
6:53 PM 50.0 °F - 34.0 °F 54% 30.09 in 10.0 mi SSE 15.0 mph - N/A   Clear
7:53 PM 48.9 °F - 33.1 °F 54% 30.09 in 10.0 mi SSE 15.0 mph - N/A   Clear
8:53 PM 46.9 °F - 34.0 °F 61% 30.09 in 10.0 mi SSE 10.4 mph - N/A   Partly Cloudy
9:53 PM 46.0 °F 41.0 °F 34.0 °F 63% 30.08 in 10.0 mi SSE 10.4 mph - N/A   Clear
11:53 PM 48.9 °F - 35.1 °F 59% 30.06 in 10.0 mi SSE 10.4 mph - N/A   Overcast